Other Public Products
Issued by NWS Grand Forks, ND

Home | Current Version | Previous Version | Graphics & Text | Print | Product List | Glossary On
Versions: 1 2 3 4 5 6 7 8 9 10 11 12 13 14 15 16 17 18 19 20 21 22 23 24 25 26 27 28 29 30 31 32 33 34 35 36 37 38 39 40 41 42 43 44 45 46 47 48 49 50
000
FPUS83 KFGF 191910
OPUFGF
PRAIRIE TO PINES WEATHER ROUNDUP
NATIONAL WEATHER SERVICE EASTERN NORTH DAKOTA/GRAND FORKS ND
100 PM CST THU JAN 19 2017

 **SATELLITE DATA USED TO AUGMENT SKY COVER AT AUTOMATED STATIONS**
 *****  WEATHER ACROSS EASTERN NORTH DAKOTA  *****

CITY           SKY/WX    TMP DP  RH WIND       PRES   REMARKS
GRAND FORKS    FAIR      27  23  85 S16       29.55F WCI  15
GRAND FORKS AF SUNNY     27  24  85 S10       29.54F WCI  18
GRAND CITY NWS NOT AVBL
BUXTON         NOT AVBL
DEVILS LAKE    FAIR      32  23  69 SW14      29.48F WCI  22
FARGO          FAIR      36  33  89 S8        29.59F
WAHPETON ARPT  FAIR      36  32  87 SE15      29.61F
$$

 *****  WEATHER ACROSS CENTRAL AND WESTERN NORTH DAKOTA  *****

CITY           SKY/WX    TMP DP  RH WIND       PRES   REMARKS
JAMESTOWN      FAIR      25  21  85 S8        29.51F WCI  16
BISMARCK       FAIR      23  17  78 E5        29.51F WCI  17
MINOT          FAIR      40  30  67 NW3       29.44F
MINOT AFB      FAIR      34  29  80 W6        29.43F
GARRISON         N/A     24  19  81 CALM      29.47F
WILLISTON      FAIR      30  20  66 SW5       29.47F
DICKINSON      FAIR      32  25  75 SW6       29.44F
HETTINGER      FAIR      29  22  75 NW8       29.47F WCI  21
$$

 *****  OTHER OBSERVATIONS NORTHEAST NORTH DAKOTA  *****

CITY           SKY/WX    TMP DP  RH WIND       PRES   REMARKS
WALHALLA       NOT AVBL
LANGDON        NOT AVBL
CAVALIER         N/A     27  23  86 S10       29.51F WCI  17
GRAFTON        CLOUDY    25  25 100 S13       29.56F FOG     WCI  13
CANDO          NOT AVBL
FORT TOTTEN      N/A     35  21  57 S7        29.95S
ROLLA            N/A    N/A N/A N/A MISG        N/A
RUGBY            N/A     27  23  86 S7        29.47F WCI  19
 ***** THE ABOVE OBSERVATIONS ARE NON NWS ARE NOT QUALITY
        CONTROLLED AND MAY MIS-REPORT RAIN FOR SNOW...
$$

 *****  OTHER OBSERVATIONS SOUTHEAST NORTH DAKOTA *****

CITY           SKY/WX    TMP DP  RH WIND       PRES   REMARKS
COOPERSTOWN    FAIR      27  25  93 S14       29.53F WCI  15
VALLEY CITY    FOG       27  27 100 S10       29.56F VSB 1/2 WCI  17
OAKES          NOT AVBL
GWINNER        FAIR      34  34 100 CALM      29.58F
SHEYENNE NWR     N/A     31  27  85 SE3       29.95S
BUFFALO        NOT AVBL
WYNDMERE       NOT AVBL
 ***** THE ABOVE OBSERVATIONS ARE NON NWS ARE NOT QUALITY
       CONTROLLED AND MAY MIS-REPORT RAIN FOR SNOW...
$$

  *****  WEATHER ACROSS NORTHERN MINNESOTA  *****

CITY           SKY/WX    TMP DP  RH WIND       PRES   REMARKS
FLAG ISLAND    FAIR      30  27  86 S17       29.56F FOG     WCI  18
WARROAD        FAIR      37  32  81 S7        29.57F
ROSEAU         CLOUDY    32  27  80 S14       29.57S HAZE    WCI  22
HALLOCK        CLOUDY    30  28  93 S22       29.54F FOG     WCI  17
THF RVR FALLS  FAIR      38  33  82 S14       29.58F
HALSTAD        NOT AVBL
FOSSTON        FAIR      39  32  75 S10       29.59F
BAUDETTE       CLOUDY    33  30  88 S10       29.59F WCI  25
WASKISH        CLOUDY    37  34  87 SW7       29.62F
CROOKSTON      FAIR      34  32  93 S18       29.58F WCI  23
$$
  *****  WEATHER ACROSS CENTRAL AND WEST MINNESOTA  *****

CITY           SKY/WX    TMP DP  RH WIND       PRES   REMARKS
BEMIDJI        PTSUNNY   37  34  90 S7        29.62S
PARK RAPIDS    FAIR      38  34  85 S8        29.63S
WADENA         FAIR      39  34  81 SE6       29.64F
DETROIT LAKES  FAIR      37  34  87 SE10      29.62F
MOORHEAD       FAIR      36  32  87 S15       29.60F
FERGUS FALLS   FAIR      37  36  93 S9        29.67S
ELBOW LAKE     FAIR      36  33  90 SE14      29.63F FOG
MORRIS MN      FAIR      37  34  87 SE16      29.63F
STAPLES        FAIR      39  34  81 CALM      29.66S
WHEATON        FAIR      43  39  87 SE15      29.63F
$$
  *****  WEATHER ELSEWHERE ACROSS MINNESOTA  *****

CITY           SKY/WX    TMP DP  RH WIND       PRES   REMARKS
DULUTH         FAIR      42  34  73 S7        29.69F
INTRNTL FALLS  CLOUDY    36  31  82 S10       29.63F
ELY            FAIR      37  34  87 SW10      29.67F
CLOQUET        FAIR      43  32  65 S8        29.69F
BRAINERD       FAIR      39  34  82 S10       29.67F
HIBBING        FOG       34  34 100 S6        29.67F VSB 1/2
ALEXANDRIA     FAIR      39  35  86 S14       29.65F
SAINT CLOUD    FAIR      39  34  82 SE10      29.70F
MINNEAPOLIS    FAIR      35  31  85 SE9       29.76F
$$

  *****  WEATHER ACROSS SOUTH DAKOTA  *****

CITY           SKY/WX    TMP DP  RH WIND       PRES   REMARKS
SIOUX FALLS    FOG       36  36 100 S10       29.66F VSB 3/4
BROOKINGS      FOG       35  34  96 S14       29.62F VSB<1/4
WATERTOWN      FOG       35  34  96 S17       29.58F VSB 3/4 WCI  25
HURON          FOG       35  35 100 S13       29.59S VSB 1/2
SISSETON         N/A     39  36  89 S12       29.58F
ABERDEEN       FOG       33  31  92 S13       29.58F VSB 1/4 WCI  24
MITCHELL       FOG       38  38 100 SE21G29   29.60F VSB 1/4
PIERRE         FAIR      25  20  81 CALM      29.52F
MOBRIDGE       FAIR      20  13  74 SE5       29.49F WCI  13
RAPID CITY     FAIR      47  26  44 VRB3      29.46F
$$

  *****  SOME WEATHER IN NEARBY STATES *****

CITY           SKY/WX    TMP DP  RH WIND       PRES   REMARKS
GLASGOW MT     FAIR      29  21  72 E7        29.44F WCI  22
GREAT FALLS MT FAIR      41  28  60 SW16      29.46F
CHEYENNE WY    FAIR      50  15  24 SW8       29.57F
SCOTTSBLUFF NE FAIR      46  25  43 VRB3      29.54F
OMAHA NE       CLOUDY    44  39  82 SE8       29.70F FOG
DES MOINES IA  DRZL/FOG  39  37  92 SE6       29.76F VSB 1
DAVENPORT IA   LGT RAIN  39  36  89 SE9       29.85F FOG
CHICAGO IL     CLOUDY    42  37  82 S6        29.91F HAZE
EAU CLAIRE WI  FAIR      39  33  79 S6        29.81F
LA CROSSE WI   CLOUDY    36  33  89 S10       29.86F FOG
$$

  *****  SOME NATIONAL WEATHER *****

CITY           SKY/WX    TMP DP  RH WIND       PRES   REMARKS
LA GUARDIA NY  PTSUNNY   47  35  63 NW14      29.99S
RALEIGH NC     FAIR      60  38  43 S5        30.03F
ATLANTA GA     PTSUNNY   72  57  59 VRB6      29.95F
NEW ORLEANS LA PTSUNNY   75  67  76 S14G28    29.85F
OKLAHOMA CITY  CLOUDY    52  44  74 S17       29.63F
ALBUQUERQUE NM PTSUNNY   44  29  55 VRB3      29.89F
SALT LAKE CITY LGT SNOW  33  31  92 SE7       29.78F FOG
LOS ANGELES CA FAIR      59  54  83 W21       29.96F
BOISE ID       CLOUDY    37  32  82 SE14      29.67S
SEATTLE WA     PTSUNNY   49  41  74 S14G21    29.52S
$$

*** WEATHER ACROSS MANITOBA...SASKATCHEWAN AND ONTARIO ***
                ***ONTARIO***

CITY           SKY/WX    TMP DP  RH WIND       PRES   REMARKS
GERALDTON      MOSUNNY   41  32  70 S13G20    29.69F
THUNDER BAY    CLOUDY    36  34  93 VRB2      29.74F FOG
SIOUX LOOKOUT  MOSUNNY   39  27  60 S10       29.57F
TORONTO        CLOUDY    36  32  87 W5        29.99F
BIG TROUT LK   SUNNY     34  28  80 S7        29.42F
PICKLE LAKE    PTSUNNY   37  27  65 SW9       29.53F
DRYDEN         SUNNY     37  28  70 SW12      29.57F
KENORA         MOSUNNY   36  30  80 S13       29.53F
$$
                *** MANITOBA***

CITY           SKY/WX    TMP DP  RH WIND       PRES   REMARKS
BRANDON        PTSUNNY   28  23  80 W8        29.45F WCI  20
DAUPHIN        SUNNY     43  32  65 W9        29.38S
ISLAND LAKE    PTSUNNY   34  27  75 SW7       29.38S
PILOT MOUND      N/A     28  23  80 S6          N/A  WCI  22
THE PAS        CLOUDY    32  28  86 SW3       29.35F
THOMPSON       CLOUDY    27  27 100 N2        29.34S FOG
WINNIPEG       PTSUNNY   28  23  80 S16G24    29.50S WCI  17
LYNN LAKE      FOG       28  28 100 VRB2      29.34R VSB 1
CHURCHILL      LGT SNOW  21  21 100 SE9       29.44R WCI  11
GILLAM         CLOUDY    32  30  93 W3        29.35S
$$
                ***SASKATCHEWAN***

CITY           SKY/WX    TMP DP  RH WIND       PRES   REMARKS
ESTEVAN        PTSUNNY   30  25  80 SW9       29.44F WCI  22
KINDERSLEY     PTSUNNY   37  32  81 S8        29.28F
LLOYDMINSTER   CLOUDY    34  28  80 S10       29.24F
PRINCE ALBERT  CLOUDY    27  25  93 VRB2      29.32F
REGINA         PTSUNNY   34  28  80 SE7       29.40F
YORKTON        SUNNY     39  30  70 SW7       29.39F   C1F1C2F2C3F3C4F4C5F5C6F6C7F7C8F8C9F9CaFaCbFbCcFcCdFdCe!


USA.gov is the U.S. government's official web portal to all federal, state and local government web resources and services.